Tracking 31027 objects as of 19-Jul-2025
HD Live streaming from Space Station
objects crossing your sky now

STARLINK-32159

Track STARLINK-32159 now!
10-day predictions
STARLINK-32159 is classified as:


NORAD ID: 60293
Int'l Code: 2024-132R
Perigee: 481.5 km
Apogee: 483.4 km
Inclination: 53.2 °
Period: 94.1 minutes
Semi major axis: 6853 km
RCS: Unknown
Launch date: July 28, 2024
Source: United States (US)
Launch site: AIR FORCE EASTERN TEST RANGE (AFETR)
Your satellite tracking list
STARLINK-1243
Track 1 satellite(s)




NASA's NSSDC Master Catalog

Two Line Element Set (TLE):
1 60293U 24132R   25199.33441485 -.00002828  00000-0 -83469-4 0  9996
2 60293  53.1607  60.6943 0001386  99.5482 260.5676 15.30168759 55688
Source of the keplerian elements: AFSPC